| time (UTC) | temp C | wind direction | speed KPH | gust KPH | rain 1hr cm | rain 24hr cm | rain mn cm | humidity % | barometer mb |
| 20260507201529 | 16 | 301 | 17.7 | 27.4 | 0.00 | 0.00 | 0.00 | 44 | 1014.2 |
| 20260507201036 | 16 | 300 | 17.7 | 27.4 | 0.00 | 0.00 | 0.00 | 45 | 1014.4 |
| 20260507200517 | 16 | 284 | 17.7 | 30.6 | 0.00 | 0.00 | 0.00 | 46 | 1014.4 |
| 20260507200018 | 16 | 300 | 20.9 | 30.6 | 0.00 | 0.00 | 0.00 | 46 | 1014.6 |
| 20260507195544 | 15 | 305 | 19.3 | 24.1 | 0.00 | 0.00 | 0.00 | 49 | 1014.6 |
| 20260507195030 | 15 | 317 | 16.1 | 27.4 | 0.00 | 0.00 | 0.00 | 48 | 1014.7 |
| 20260507194531 | 15 | 312 | 19.3 | 27.4 | 0.00 | 0.00 | 0.00 | 46 | 1014.8 |
| 20260507194013 | 15 | 311 | 20.9 | 27.4 | 0.00 | 0.00 | 0.00 | 48 | 1014.8 |
| 20260507193521 | 14 | 274 | 19.3 | 32.2 | 0.00 | 0.00 | 0.00 | 47 | 1014.8 |
| 20260507193022 | 15 | 293 | 20.9 | 32.2 | 0.00 | 0.00 | 0.00 | 45 | 1015.0 |
| 20260507192523 | 15 | 288 | 19.3 | 30.6 | 0.00 | 0.00 | 0.00 | 48 | 1015.0 |
| 20260507192053 | 15 | 288 | 22.5 | 30.6 | 0.00 | 0.00 | 0.00 | 48 | 1015.0 |
| 20260507191513 | 15 | 284 | 20.9 | 30.6 | 0.00 | 0.00 | 0.00 | 47 | 1015.1 |
| 20260507191021 | 15 | 291 | 20.9 | 30.6 | 0.00 | 0.00 | 0.00 | 52 | 1015.1 |
| 20260507190522 | 14 | 274 | 20.9 | 30.6 | 0.00 | 0.00 | 0.00 | 52 | 1015.2 |
| 20260507190031 | 14 | 300 | 19.3 | 33.8 | 0.00 | 0.00 | 0.00 | 49 | 1015.2 |
| 20260507185532 | 13 | 286 | 19.3 | 33.8 | 0.00 | 0.00 | 0.00 | 53 | 1015.3 |
| 20260507185059 | 13 | 295 | 19.3 | 30.6 | 0.00 | 0.00 | 0.00 | 52 | 1015.3 |
| 20260507184518 | 13 | 283 | 20.9 | 33.8 | 0.00 | 0.00 | 0.00 | 53 | 1015.4 |
| 20260507184020 | 12 | 305 | 22.5 | 33.8 | 0.00 | 0.00 | 0.00 | 52 | 1015.4 |
| 20260507183548 | 13 | 290 | 22.5 | 33.8 | 0.00 | 0.00 | 0.00 | 54 | 1015.4 |
| 20260507183028 | 12 | 290 | 17.7 | 29.0 | 0.00 | 0.00 | 0.00 | 58 | 1015.5 |
| 20260507182534 | 12 | 286 | 22.5 | 29.0 | 0.00 | 0.00 | 0.00 | 55 | 1015.5 |
| 20260507182015 | 12 | 273 | 17.7 | 25.7 | 0.00 | 0.00 | 0.00 | 58 | 1015.6 |
| 20260507181515 | 12 | 268 | 12.9 | 22.5 | 0.00 | 0.00 | 0.00 | 58 | 1015.8 |
| 20260507181043 | 11 | 282 | 14.5 | 24.1 | 0.00 | 0.00 | 0.00 | 57 | 1015.8 |
| 20260507180522 | 11 | 274 | 16.1 | 24.1 | 0.00 | 0.00 | 0.00 | 58 | 1015.9 |
| 20260507180029 | 11 | 295 | 16.1 | 24.1 | 0.00 | 0.00 | 0.00 | 57 | 1015.9 |
| 20260507175525 | 11 | 298 | 16.1 | 22.5 | 0.00 | 0.03 | 0.00 | 57 | 1015.9 |
| 20260507175033 | 10 | 288 | 16.1 | 22.5 | 0.00 | 0.03 | 0.00 | 58 | 1016.0 |
| 20260507174515 | 10 | 291 | 16.1 | 22.5 | 0.00 | 0.03 | 0.00 | 58 | 1016.0 |
| 20260507174022 | 10 | 284 | 16.1 | 22.5 | 0.00 | 0.03 | 0.00 | 59 | 1016.0 |
| 20260507173522 | 10 | 288 | 16.1 | 20.9 | 0.00 | 0.03 | 0.00 | 61 | 1016.0 |
| 20260507173051 | 9 | 280 | 16.1 | 20.9 | 0.00 | 0.03 | 0.00 | 61 | 1015.9 |
| 20260507172537 | 9 | 300 | 16.1 | 19.3 | 0.00 | 0.03 | 0.00 | 62 | 1015.9 |
| 20260507172018 | 8 | 298 | 14.5 | 20.9 | 0.00 | 0.03 | 0.00 | 64 | 1015.8 |
| 20260507171518 | 8 | 295 | 16.1 | 22.5 | 0.00 | 0.03 | 0.00 | 64 | 1015.8 |
| 20260507171021 | 8 | 284 | 16.1 | 22.5 | 0.00 | 0.03 | 0.00 | 65 | 1015.8 |
| 20260507170529 | 7 | 288 | 14.5 | 24.1 | 0.00 | 0.03 | 0.00 | 65 | 1015.9 |
| 20260507170031 | 7 | 283 | 17.7 | 25.7 | 0.00 | 0.03 | 0.00 | 63 | 1015.9 |
| 20260507165540 | 8 | 286 | 19.3 | 27.4 | 0.00 | 0.13 | 0.00 | 62 | 1015.9 |
| 20260507165020 | 8 | 303 | 20.9 | 30.6 | 0.00 | 0.13 | 0.00 | 61 | 1016.1 |
| 20260507164529 | 8 | 303 | 20.9 | 30.6 | 0.00 | 0.13 | 0.00 | 61 | 1016.1 |
| 20260507164050 | 8 | 286 | 20.9 | 27.4 | 0.00 | 0.13 | 0.00 | 61 | 1016.0 |
| 20260507163538 | 8 | 286 | 16.1 | 24.1 | 0.00 | 0.13 | 0.00 | 60 | 1016.1 |
| 20260507163041 | 8 | 290 | 16.1 | 22.5 | 0.00 | 0.13 | 0.00 | 59 | 1016.0 |
| 20260507162528 | 8 | 310 | 16.1 | 20.9 | 0.00 | 0.13 | 0.00 | 62 | 1015.9 |
| 20260507162029 | 7 | 292 | 14.5 | 24.1 | 0.00 | 0.13 | 0.00 | 63 | 1015.9 |
| 20260507161534 | 7 | 301 | 16.1 | 24.1 | 0.00 | 0.13 | 0.00 | 62 | 1015.8 |
| 20260507161101 | 7 | 303 | 17.7 | 24.1 | 0.00 | 0.13 | 0.00 | 62 | 1015.8 |
| 20260507160521 | 7 | 295 | 17.7 | 24.1 | 0.00 | 0.13 | 0.00 | 63 | 1015.8 |
| 20260507160021 | 6 | 282 | 14.5 | 19.3 | 0.00 | 0.13 | 0.00 | 63 | 1015.9 |
| 20260507155529 | 7 | 290 | 14.5 | 19.3 | 0.00 | 0.18 | 0.00 | 63 | 1015.9 |
| 20260507155049 | 7 | 305 | 12.9 | 19.3 | 0.00 | 0.18 | 0.00 | 63 | 1016.1 |
| 20260507154537 | 7 | 293 | 12.9 | 20.9 | 0.00 | 0.18 | 0.00 | 62 | 1016.1 |
| 20260507154018 | 7 | 316 | 14.5 | 20.9 | 0.00 | 0.18 | 0.00 | 62 | 1016.3 |
| 20260507153520 | 7 | 324 | 16.1 | 24.1 | 0.00 | 0.18 | 0.00 | 62 | 1016.3 |
| 20260507153048 | 7 | 303 | 17.7 | 25.7 | 0.00 | 0.18 | 0.00 | 61 | 1016.3 |
| 20260507152528 | 7 | 311 | 19.3 | 29.0 | 0.00 | 0.18 | 0.00 | 60 | 1016.3 |
| 20260507152036 | 7 | 309 | 19.3 | 32.2 | 0.00 | 0.18 | 0.00 | 60 | 1016.4 |
| 20260507151516 | 7 | 311 | 22.5 | 37.0 | 0.00 | 0.18 | 0.00 | 60 | 1016.3 |
| 20260507151017 | 7 | 300 | 24.1 | 32.2 | 0.00 | 0.18 | 0.00 | 59 | 1016.2 |
| 20260507150524 | 7 | 320 | 24.1 | 30.6 | 0.00 | 0.18 | 0.00 | 62 | 1016.3 |
| 20260507150025 | 6 | 313 | 19.3 | 29.0 | 0.00 | 0.18 | 0.00 | 64 | 1016.3 |
| 20260507145533 | 6 | 318 | 20.9 | 35.4 | 0.00 | 0.20 | 0.00 | 62 | 1016.3 |
| 20260507145019 | 6 | 322 | 22.5 | 35.4 | 0.00 | 0.20 | 0.00 | 61 | 1016.3 |
| 20260507144521 | 6 | 321 | 22.5 | 30.6 | 0.00 | 0.20 | 0.00 | 63 | 1016.3 |
| 20260507144024 | 6 | 311 | 22.5 | 29.0 | 0.00 | 0.20 | 0.00 | 65 | 1016.3 |
| 20260507143525 | 6 | 320 | 19.3 | 29.0 | 0.00 | 0.20 | 0.00 | 63 | 1016.3 |
| 20260507143014 | 6 | 313 | 19.3 | 29.0 | 0.00 | 0.20 | 0.00 | 62 | 1016.2 |
| 20260507142516 | 6 | 304 | 19.3 | 30.6 | 0.00 | 0.20 | 0.00 | 62 | 1016.2 |
| 20260507142017 | 6 | 306 | 20.9 | 30.6 | 0.00 | 0.20 | 0.00 | 62 | 1016.1 |
| 20260507141523 | 6 | 304 | 20.9 | 32.2 | 0.00 | 0.20 | 0.00 | 62 | 1016.1 |
| 20260507141026 | 6 | 302 | 25.7 | 35.4 | 0.00 | 0.20 | 0.00 | 61 | 1016.0 |
| 20260507140534 | 6 | 298 | 25.7 | 37.0 | 0.00 | 0.20 | 0.00 | 60 | 1015.9 |
| 20260507140019 | 6 | 311 | 25.7 | 43.5 | 0.00 | 0.20 | 0.00 | 60 | 1015.7 |
| 20260507135520 | 6 | 301 | 32.2 | 49.9 | 0.00 | 0.20 | 0.00 | 60 | 1015.6 |
| 20260507135046 | 6 | 288 | 35.4 | 49.9 | 0.00 | 0.20 | 0.00 | 60 | 1015.2 |
| 20260507134533 | 6 | 292 | 33.8 | 46.7 | 0.00 | 0.20 | 0.00 | 61 | 1015.1 |
| 20260507134034 | 6 | 302 | 29.0 | 43.5 | 0.00 | 0.20 | 0.00 | 60 | 1015.2 |
| 20260507133522 | 6 | 298 | 30.6 | 40.2 | 0.00 | 0.20 | 0.00 | 60 | 1015.3 |
| 20260507133044 | 6 | 291 | 27.4 | 38.6 | 0.00 | 0.20 | 0.00 | 60 | 1015.3 |
| 20260507132529 | 6 | 290 | 29.0 | 38.6 | 0.00 | 0.20 | 0.00 | 61 | 1015.2 |
| 20260507132031 | 6 | 291 | 32.2 | 38.6 | 0.00 | 0.20 | 0.00 | 61 | 1015.1 |
| 20260507131539 | 6 | 297 | 30.6 | 40.2 | 0.00 | 0.20 | 0.00 | 62 | 1015.1 |
| 20260507131020 | 6 | 283 | 30.6 | 41.8 | 0.00 | 0.20 | 0.00 | 62 | 1015.1 |
| 20260507130523 | 6 | 297 | 30.6 | 41.8 | 0.00 | 0.20 | 0.00 | 62 | 1014.9 |
| 20260507130031 | 6 | 286 | 32.2 | 41.8 | 0.00 | 0.20 | 0.00 | 61 | 1014.9 |
| 20260507125512 | 6 | 292 | 32.2 | 40.2 | 0.00 | 0.20 | 0.00 | 61 | 1014.8 |
| 20260507125032 | 5 | 291 | 29.0 | 41.8 | 0.00 | 0.20 | 0.00 | 62 | 1014.8 |
| 20260507124513 | 5 | 307 | 30.6 | 41.8 | 0.00 | 0.20 | 0.00 | 62 | 1014.8 |
| 20260507124022 | 5 | 299 | 29.0 | 40.2 | 0.00 | 0.20 | 0.00 | 62 | 1014.9 |
| 20260507123529 | 5 | 313 | 25.7 | 35.4 | 0.00 | 0.20 | 0.00 | 62 | 1014.9 |
| 20260507123030 | 5 | 291 | 25.7 | 37.0 | 0.00 | 0.20 | 0.00 | 62 | 1015.0 |
| 20260507122538 | 5 | 305 | 25.7 | 37.0 | 0.00 | 0.20 | 0.00 | 63 | 1015.0 |
| 20260507122019 | 5 | 314 | 24.1 | 38.6 | 0.00 | 0.20 | 0.00 | 64 | 1014.8 |
| 20260507121528 | 5 | 291 | 27.4 | 38.6 | 0.00 | 0.20 | 0.00 | 64 | 1014.8 |
| 20260507121030 | 5 | 301 | 30.6 | 40.2 | 0.00 | 0.20 | 0.00 | 64 | 1014.8 |
| 20260507120539 | 5 | 305 | 29.0 | 40.2 | 0.00 | 0.20 | 0.00 | 64 | 1014.6 |
| 20260507120021 | 5 | 293 | 30.6 | 40.2 | 0.00 | 0.20 | 0.00 | 63 | 1014.6 |
| 20260507115524 | 5 | 305 | 30.6 | 37.0 | 0.00 | 0.20 | 0.00 | 64 | 1014.5 |
| 20260507115033 | 5 | 298 | 27.4 | 38.6 | 0.00 | 0.20 | 0.00 | 63 | 1014.5 |
| 20260507114531 | 5 | 290 | 30.6 | 41.8 | 0.00 | 0.20 | 0.00 | 63 | 1014.6 |
| 20260507114014 | 5 | 299 | 32.2 | 43.5 | 0.00 | 0.20 | 0.00 | 63 | 1014.5 |
| 20260507113522 | 5 | 305 | 32.2 | 43.5 | 0.00 | 0.20 | 0.00 | 63 | 1014.5 |
| 20260507113056 | 5 | 307 | 30.6 | 48.3 | 0.00 | 0.20 | 0.00 | 62 | 1014.4 |
| 20260507112516 | 5 | 307 | 32.2 | 48.3 | 0.00 | 0.20 | 0.00 | 62 | 1014.4 |
| 20260507112017 | 5 | 288 | 33.8 | 41.8 | 0.00 | 0.20 | 0.00 | 62 | 1014.2 |
| 20260507111546 | 5 | 297 | 30.6 | 41.8 | 0.00 | 0.20 | 0.00 | 62 | 1014.2 |
| 20260507111025 | 5 | 314 | 29.0 | 38.6 | 0.00 | 0.20 | 0.00 | 62 | 1014.4 |
| 20260507110533 | 5 | 309 | 25.7 | 41.8 | 0.00 | 0.20 | 0.00 | 62 | 1014.7 |
| 20260507110015 | 5 | 300 | 29.0 | 41.8 | 0.00 | 0.20 | 0.00 | 62 | 1014.5 |
| 20260507105515 | 5 | 307 | 30.6 | 43.5 | 0.00 | 0.20 | 0.00 | 62 | 1014.6 |
| 20260507105043 | 5 | 295 | 32.2 | 43.5 | 0.00 | 0.20 | 0.00 | 62 | 1014.5 |
| 20260507104524 | 5 | 305 | 32.2 | 41.8 | 0.00 | 0.20 | 0.00 | 62 | 1014.4 |
| 20260507104033 | 5 | 295 | 32.2 | 45.1 | 0.00 | 0.20 | 0.00 | 62 | 1014.4 |
| 20260507103518 | 5 | 298 | 35.4 | 45.1 | 0.00 | 0.20 | 0.00 | 62 | 1014.4 |
| 20260507103019 | 5 | 303 | 32.2 | 43.5 | 0.00 | 0.20 | 0.00 | 62 | 1014.5 |
| 20260507102547 | 5 | 303 | 32.2 | 40.2 | 0.00 | 0.20 | 0.00 | 63 | 1014.4 |
| 20260507102027 | 5 | 310 | 30.6 | 38.6 | 0.00 | 0.20 | 0.00 | 62 | 1014.4 |
| 20260507101539 | 5 | 295 | 29.0 | 38.6 | 0.00 | 0.20 | 0.00 | 62 | 1014.4 |
| 20260507101021 | 5 | 292 | 30.6 | 38.6 | 0.00 | 0.20 | 0.00 | 61 | 1014.4 |
| 20260507100522 | 5 | 288 | 30.6 | 43.5 | 0.00 | 0.20 | 0.00 | 60 | 1014.4 |
| 20260507100052 | 5 | 298 | 29.0 | 45.1 | 0.00 | 0.20 | 0.00 | 60 | 1014.4 |
| 20260507095538 | 5 | 300 | 30.6 | 45.1 | 0.00 | 0.20 | 0.00 | 59 | 1014.4 |
| 20260507095019 | 5 | 316 | 32.2 | 41.8 | 0.00 | 0.20 | 0.00 | 59 | 1014.4 |
| 20260507094519 | 5 | 303 | 30.6 | 41.8 | 0.00 | 0.20 | 0.00 | 60 | 1014.4 |
| 20260507094023 | 5 | 302 | 29.0 | 38.6 | 0.00 | 0.20 | 0.00 | 61 | 1014.5 |
| 20260507093534 | 5 | 303 | 27.4 | 41.8 | 0.00 | 0.20 | 0.00 | 61 | 1014.5 |
| 20260507093016 | 5 | 293 | 27.4 | 41.8 | 0.00 | 0.20 | 0.00 | 61 | 1014.7 |
| 20260507092519 | 5 | 299 | 30.6 | 40.2 | 0.00 | 0.20 | 0.00 | 61 | 1014.6 |
| 20260507092026 | 5 | 295 | 30.6 | 38.6 | 0.00 | 0.20 | 0.00 | 61 | 1014.7 |
| 20260507091528 | 5 | 309 | 29.0 | 38.6 | 0.00 | 0.20 | 0.00 | 61 | 1014.7 |
| 20260507091016 | 5 | 311 | 24.1 | 41.8 | 0.00 | 0.20 | 0.00 | 61 | 1014.8 |
| 20260507090523 | 5 | 293 | 29.0 | 41.8 | 0.00 | 0.20 | 0.00 | 61 | 1014.8 |
| 20260507090024 | 5 | 309 | 27.4 | 40.2 | 0.00 | 0.20 | 0.00 | 61 | 1014.8 |
| 20260507085533 | 5 | 312 | 29.0 | 40.2 | 0.00 | 0.20 | 0.00 | 60 | 1014.8 |
| 20260507085014 | 5 | 307 | 29.0 | 40.2 | 0.00 | 0.20 | 0.00 | 60 | 1014.8 |
| 20260507084517 | 5 | 312 | 29.0 | 48.3 | 0.00 | 0.20 | 0.00 | 60 | 1014.7 |
| 20260507084016 | 5 | 304 | 30.6 | 48.3 | 0.00 | 0.20 | 0.00 | 60 | 1014.6 |
| 20260507083526 | 5 | 300 | 29.0 | 40.2 | 0.00 | 0.20 | 0.00 | 60 | 1014.6 |
| 20260507083056 | 5 | 299 | 32.2 | 41.8 | 0.00 | 0.20 | 0.00 | 60 | 1014.6 |
| 20260507082536 | 5 | 309 | 30.6 | 43.5 | 0.00 | 0.20 | 0.00 | 60 | 1014.6 |
| 20260507082023 | 5 | 304 | 32.2 | 46.7 | 0.00 | 0.20 | 0.00 | 60 | 1014.6 |
| 20260507081523 | 5 | 298 | 32.2 | 46.7 | 0.00 | 0.20 | 0.00 | 59 | 1014.7 |
| 20260507081026 | 5 | 297 | 33.8 | 48.3 | 0.00 | 0.20 | 0.00 | 59 | 1014.6 |
| 20260507080535 | 5 | 297 | 30.6 | 48.3 | 0.00 | 0.20 | 0.00 | 59 | 1014.7 |
| 20260507080015 | 5 | 295 | 37.0 | 48.3 | 0.00 | 0.20 | 0.00 | 60 | 1014.7 |
| 20260507075517 | 5 | 307 | 35.4 | 48.3 | 0.00 | 0.20 | 0.00 | 60 | 1014.7 |
| 20260507075025 | 4 | 300 | 35.4 | 46.7 | 0.00 | 0.20 | 0.00 | 60 | 1014.6 |
| 20260507074526 | 4 | 282 | 35.4 | 51.5 | 0.00 | 0.20 | 0.00 | 61 | 1014.7 |
| 20260507074036 | 4 | 295 | 33.8 | 51.5 | 0.00 | 0.20 | 0.00 | 61 | 1014.7 |
| 20260507073517 | 4 | 290 | 32.2 | 43.5 | 0.00 | 0.20 | 0.00 | 60 | 1014.8 |
| 20260507073019 | 4 | 290 | 29.0 | 38.6 | 0.00 | 0.20 | 0.00 | 60 | 1014.8 |
| 20260507072520 | 4 | 295 | 27.4 | 41.8 | 0.00 | 0.20 | 0.00 | 60 | 1014.7 |
| 20260507072027 | 4 | 284 | 29.0 | 41.8 | 0.00 | 0.20 | 0.00 | 59 | 1014.9 |
| 20260507071528 | 4 | 286 | 32.2 | 41.8 | 0.00 | 0.20 | 0.00 | 60 | 1014.8 |
| 20260507071014 | 4 | 305 | 30.6 | 41.8 | 0.00 | 0.20 | 0.00 | 60 | 1015.0 |
| 20260507070523 | 4 | 299 | 29.0 | 43.5 | 0.00 | 0.20 | 0.00 | 61 | 1014.9 |
| 20260507070025 | 4 | 293 | 30.6 | 43.5 | 0.00 | 0.20 | 0.00 | 61 | 1015.0 |
| 20260507065532 | 3 | 309 | 29.0 | 38.6 | 0.00 | 0.20 | 0.00 | 61 | 1015.1 |
| 20260507065014 | 3 | 316 | 27.4 | 38.6 | 0.00 | 0.20 | 0.00 | 62 | 1015.2 |
| 20260507064516 | 3 | 291 | 29.0 | 38.6 | 0.00 | 0.20 | 0.00 | 63 | 1015.2 |
| 20260507064023 | 3 | 290 | 27.4 | 41.8 | 0.00 | 0.20 | 0.00 | 64 | 1015.4 |
| 20260507063525 | 3 | 290 | 30.6 | 41.8 | 0.00 | 0.20 | 0.00 | 65 | 1015.3 |
| 20260507063031 | 3 | 288 | 29.0 | 38.6 | 0.00 | 0.20 | 0.00 | 68 | 1015.3 |
| 20260507062512 | 2 | 290 | 19.3 | 25.7 | 0.00 | 0.20 | 0.00 | 71 | 1015.4 |
| 20260507062013 | 1 | 284 | 16.1 | 25.7 | 0.00 | 0.20 | 0.00 | 70 | 1015.6 |
| 20260507061521 | 2 | 297 | 16.1 | 25.7 | 0.00 | 0.20 | 0.00 | 68 | 1015.8 |
| 20260507061045 | 2 | 316 | 16.1 | 25.7 | 0.00 | 0.20 | 0.00 | 67 | 1015.8 |
| 20260507060524 | 2 | 283 | 19.3 | 29.0 | 0.00 | 0.20 | 0.00 | 68 | 1015.9 |
| 20260507060032 | 2 | 274 | 17.7 | 29.0 | 0.00 | 0.20 | 0.00 | 69 | 1015.8 |
| 20260507055525 | 2 | 273 | 19.3 | 29.0 | 0.00 | 0.20 | 0.00 | 68 | 1015.9 |
| 20260507055027 | 2 | 272 | 17.7 | 33.8 | 0.00 | 0.20 | 0.00 | 70 | 1016.0 |
| 20260507054518 | 2 | 268 | 22.5 | 33.8 | 0.00 | 0.20 | 0.00 | 72 | 1016.0 |
| 20260507054101 | 2 | 284 | 24.1 | 30.6 | 0.00 | 0.20 | 0.00 | 76 | 1016.0 |
| 20260507053539 | 1 | 284 | 17.7 | 25.7 | 0.00 | 0.20 | 0.00 | 80 | 1016.1 |
| 20260507053028 | 1 | 263 | 14.5 | 24.1 | 0.00 | 0.20 | 0.00 | 84 | 1015.9 |
| 20260507052527 | 0 | 276 | 9.7 | 14.5 | 0.00 | 0.20 | 0.00 | 85 | 1016.2 |
| 20260507052027 | 0 | 245 | 8.0 | 16.1 | 0.00 | 0.20 | 0.00 | 86 | 1016.3 |
| 20260507051536 | 0 | 236 | 11.3 | 19.3 | 0.00 | 0.20 | 0.00 | 86 | 1016.3 |
| 20260507051016 | 0 | 257 | 12.9 | 20.9 | 0.00 | 0.20 | 0.00 | 86 | 1016.4 |
| 20260507050518 | 0 | 258 | 16.1 | 22.5 | 0.00 | 0.20 | 0.00 | 87 | 1016.3 |
| 20260507050024 | 0 | 226 | 16.1 | 22.5 | 0.00 | 0.20 | 0.00 | 86 | 1016.4 |
| 20260507045545 | 0 | 242 | 14.5 | 22.5 | 0.00 | 0.20 | 0.00 | 86 | 1016.5 |
| 20260507045012 | 0 | 244 | 16.1 | 25.7 | 0.00 | 0.20 | 0.00 | 86 | 1016.5 |
| 20260507044532 | 0 | 238 | 19.3 | 27.4 | 0.00 | 0.20 | 0.00 | 86 | 1016.4 |
| 20260507044015 | 0 | 253 | 17.7 | 27.4 | 0.00 | 0.20 | 0.00 | 85 | 1016.3 |
| 20260507043523 | 0 | 252 | 19.3 | 25.7 | 0.00 | 0.20 | 0.00 | 85 | 1016.4 |
| 20260507043025 | 0 | 250 | 19.3 | 25.7 | 0.00 | 0.20 | 0.00 | 85 | 1016.4 |
| 20260507042533 | 0 | 257 | 17.7 | 25.7 | 0.00 | 0.20 | 0.00 | 84 | 1016.3 |
| 20260507042034 | 0 | 257 | 19.3 | 29.0 | 0.00 | 0.20 | 0.00 | 84 | 1016.4 |
| 20260507041515 | 0 | 238 | 17.7 | 29.0 | 0.00 | 0.20 | 0.00 | 84 | 1016.4 |
| 20260507041023 | 0 | 263 | 20.9 | 29.0 | 0.00 | 0.20 | 0.00 | 84 | 1016.3 |
| 20260507040522 | 0 | 266 | 19.3 | 29.0 | 0.00 | 0.20 | 0.00 | 83 | 1016.5 |
| 20260507040029 | 0 | 238 | 17.7 | 27.4 | 0.00 | 0.20 | 0.00 | 83 | 1016.5 |
| 20260507035530 | 0 | 247 | 17.7 | 27.4 | 0.00 | 0.20 | 0.00 | 82 | 1016.4 |
| 20260507035018 | 0 | 243 | 19.3 | 27.4 | 0.00 | 0.20 | 0.00 | 82 | 1016.6 |
| 20260507034520 | 0 | 250 | 16.1 | 25.7 | 0.00 | 0.20 | 0.00 | 81 | 1016.6 |
| 20260507034020 | 0 | 245 | 17.7 | 25.7 | 0.00 | 0.20 | 0.00 | 81 | 1016.5 |
| 20260507033512 | 0 | 246 | 17.7 | 25.7 | 0.00 | 0.20 | 0.00 | 82 | 1016.5 |
| 20260507033057 | 0 | 250 | 14.5 | 22.5 | 0.00 | 0.20 | 0.00 | 82 | 1016.7 |
| 20260507032518 | 0 | 238 | 16.1 | 24.1 | 0.00 | 0.20 | 0.00 | 82 | 1016.6 |
| 20260507032018 | 0 | 243 | 17.7 | 24.1 | 0.00 | 0.20 | 0.00 | 82 | 1016.6 |
| 20260507031519 | 0 | 245 | 16.1 | 22.5 | 0.00 | 0.20 | 0.00 | 81 | 1016.6 |
| 20260507031027 | 0 | 248 | 16.1 | 22.5 | 0.00 | 0.20 | 0.00 | 81 | 1016.6 |
| 20260507030558 | 0 | 243 | 16.1 | 20.9 | 0.00 | 0.20 | 0.00 | 81 | 1016.6 |
| 20260507030040 | 0 | 247 | 16.1 | 24.1 | 0.00 | 0.20 | 0.00 | 81 | 1016.5 |
| 20260507025527 | 1 | 255 | 16.1 | 24.1 | 0.00 | 0.20 | 0.00 | 81 | 1016.6 |
| 20260507025027 | 0 | 228 | 16.1 | 20.9 | 0.00 | 0.20 | 0.00 | 81 | 1016.5 |
| 20260507024528 | 1 | 254 | 16.1 | 22.5 | 0.00 | 0.20 | 0.00 | 82 | 1016.5 |
| 20260507024037 | 0 | 239 | 16.1 | 22.5 | 0.00 | 0.20 | 0.00 | 81 | 1016.4 |
| 20260507023518 | 0 | 241 | 14.5 | 22.5 | 0.00 | 0.20 | 0.00 | 81 | 1016.4 |
| 20260507023018 | 0 | 242 | 14.5 | 22.5 | 0.00 | 0.20 | 0.00 | 81 | 1016.3 |
| 20260507022526 | 0 | 244 | 14.5 | 22.5 | 0.00 | 0.20 | 0.00 | 81 | 1016.4 |
| 20260507022027 | 0 | 232 | 14.5 | 22.5 | 0.00 | 0.20 | 0.00 | 81 | 1016.5 |
| 20260507021535 | 0 | 250 | 14.5 | 20.9 | 0.00 | 0.20 | 0.00 | 81 | 1016.5 |
| 20260507021018 | 0 | 246 | 16.1 | 20.9 | 0.00 | 0.20 | 0.00 | 80 | 1016.6 |
| 20260507020535 | 1 | 238 | 12.9 | 20.9 | 0.00 | 0.20 | 0.00 | 79 | 1016.5 |
| 20260507020041 | 1 | 253 | 14.5 | 22.5 | 0.00 | 0.20 | 0.00 | 79 | 1016.6 |
| 20260507015528 | 1 | 250 | 16.1 | 22.5 | 0.00 | 0.20 | 0.00 | 79 | 1016.7 |
| 20260507015028 | 1 | 246 | 14.5 | 19.3 | 0.00 | 0.20 | 0.00 | 79 | 1016.6 |
| 20260507014536 | 1 | 251 | 11.3 | 20.9 | 0.00 | 0.20 | 0.00 | 79 | 1016.7 |
| 20260507014017 | 1 | 243 | 14.5 | 20.9 | 0.00 | 0.20 | 0.00 | 79 | 1016.7 |
| 20260507013518 | 1 | 247 | 12.9 | 20.9 | 0.00 | 0.20 | 0.00 | 79 | 1016.9 |
| 20260507013026 | 1 | 244 | 16.1 | 22.5 | 0.00 | 0.20 | 0.00 | 79 | 1016.9 |
| 20260507012535 | 1 | 241 | 16.1 | 22.5 | 0.00 | 0.20 | 0.00 | 79 | 1017.0 |
| 20260507012037 | 1 | 240 | 17.7 | 22.5 | 0.00 | 0.20 | 0.00 | 79 | 1016.9 |
| 20260507011517 | 1 | 236 | 11.3 | 20.9 | 0.00 | 0.20 | 0.00 | 79 | 1017.0 |
| 20260507010526 | 1 | 234 | 14.5 | 20.9 | 0.00 | 0.20 | 0.00 | 79 | 1016.9 |
| 20260507010035 | 1 | 216 | 14.5 | 20.9 | 0.00 | 0.20 | 0.00 | 78 | 1016.9 |
| 20260507005520 | 1 | 232 | 12.9 | 20.9 | 0.00 | 0.20 | 0.00 | 78 | 1016.9 |
| 20260507005049 | 1 | 236 | 12.9 | 20.9 | 0.00 | 0.20 | 0.00 | 78 | 1016.9 |
| 20260507004548 | 1 | 234 | 14.5 | 22.5 | 0.00 | 0.20 | 0.00 | 77 | 1016.9 |
| 20260507004035 | 1 | 243 | 12.9 | 24.1 | 0.00 | 0.20 | 0.00 | 77 | 1016.9 |
| 20260507003517 | 1 | 249 | 14.5 | 22.5 | 0.00 | 0.20 | 0.00 | 77 | 1016.9 |
| 20260507003019 | 1 | 248 | 14.5 | 20.9 | 0.00 | 0.20 | 0.00 | 78 | 1017.0 |
| 20260507002525 | 1 | 257 | 14.5 | 20.9 | 0.00 | 0.20 | 0.00 | 78 | 1017.0 |
| 20260507002027 | 1 | 247 | 12.9 | 22.5 | 0.00 | 0.20 | 0.00 | 78 | 1017.1 |
| 20260507001536 | 1 | 240 | 14.5 | 22.5 | 0.00 | 0.20 | 0.00 | 78 | 1017.0 |
| 20260507001016 | 1 | 247 | 12.9 | 17.7 | 0.00 | 0.20 | 0.00 | 77 | 1017.1 |
| 20260507000523 | 1 | 247 | 12.9 | 17.7 | 0.00 | 0.20 | 0.00 | 78 | 1017.2 |
| 20260507000025 | 1 | 254 | 12.9 | 19.3 | 0.00 | 0.20 | 0.00 | 77 | 1017.2 |
| 20260506235535 | 1 | 256 | 12.9 | 19.3 | 0.00 | 0.20 | 0.00 | 76 | 1017.3 |
| 20260506235014 | 1 | 234 | 14.5 | 19.3 | 0.00 | 0.20 | 0.00 | 76 | 1017.3 |
| 20260506234534 | 1 | 249 | 12.9 | 19.3 | 0.00 | 0.20 | 0.00 | 76 | 1017.3 |
| 20260506234019 | 1 | 245 | 14.5 | 19.3 | 0.00 | 0.20 | 0.00 | 75 | 1017.3 |
| 20260506233517 | 1 | 254 | 12.9 | 20.9 | 0.00 | 0.20 | 0.00 | 75 | 1017.4 |
| 20260506233025 | 1 | 253 | 14.5 | 20.9 | 0.00 | 0.20 | 0.00 | 75 | 1017.4 |
| 20260506232546 | 1 | 254 | 12.9 | 19.3 | 0.00 | 0.20 | 0.00 | 74 | 1017.6 |
| 20260506232033 | 1 | 265 | 14.5 | 19.3 | 0.00 | 0.20 | 0.00 | 74 | 1017.5 |
| 20260506231516 | 1 | 239 | 14.5 | 19.3 | 0.00 | 0.20 | 0.00 | 74 | 1017.6 |
| 20260506231018 | 1 | 279 | 14.5 | 19.3 | 0.00 | 0.20 | 0.00 | 74 | 1017.5 |
| 20260506230527 | 1 | 251 | 12.9 | 17.7 | 0.00 | 0.20 | 0.00 | 74 | 1017.5 |
| 20260506230029 | 1 | 272 | 11.3 | 20.9 | 0.00 | 0.20 | 0.00 | 74 | 1017.4 |
| 20260506225537 | 1 | 257 | 14.5 | 20.9 | 0.00 | 0.30 | 0.00 | 73 | 1017.5 |
| 20260506225018 | 1 | 243 | 12.9 | 19.3 | 0.00 | 0.30 | 0.00 | 74 | 1017.5 |
| 20260506224519 | 1 | 243 | 12.9 | 19.3 | 0.00 | 0.30 | 0.00 | 74 | 1017.5 |
| 20260506224020 | 1 | 251 | 12.9 | 22.5 | 0.00 | 0.30 | 0.00 | 74 | 1017.5 |
| 20260506223549 | 1 | 247 | 14.5 | 22.5 | 0.00 | 0.30 | 0.00 | 73 | 1017.5 |
| 20260506223035 | 1 | 251 | 14.5 | 20.9 | 0.00 | 0.30 | 0.00 | 73 | 1017.5 |
| 20260506222516 | 1 | 239 | 12.9 | 20.9 | 0.00 | 0.30 | 0.00 | 73 | 1017.5 |
| 20260506222034 | 1 | 232 | 12.9 | 19.3 | 0.00 | 0.30 | 0.00 | 74 | 1017.6 |
| 20260506221541 | 1 | 236 | 12.9 | 17.7 | 0.00 | 0.30 | 0.00 | 75 | 1017.6 |
| 20260506221029 | 1 | 272 | 11.3 | 19.3 | 0.00 | 0.30 | 0.00 | 74 | 1017.6 |
| 20260506220555 | 1 | 232 | 12.9 | 19.3 | 0.00 | 0.30 | 0.00 | 75 | 1017.7 |
| 20260506220015 | 1 | 252 | 12.9 | 19.3 | 0.00 | 0.30 | 0.00 | 75 | 1017.9 |
| 20260506215516 | 1 | 240 | 12.9 | 17.7 | 0.00 | 0.43 | 0.00 | 75 | 1017.7 |
| 20260506215024 | 1 | 212 | 14.5 | 17.7 | 0.00 | 0.43 | 0.00 | 74 | 1017.9 |
| 20260506214525 | 1 | 232 | 14.5 | 19.3 | 0.00 | 0.43 | 0.00 | 75 | 1017.9 |
| 20260506214034 | 1 | 239 | 14.5 | 19.3 | 0.00 | 0.43 | 0.00 | 74 | 1018.0 |
| 20260506213514 | 1 | 240 | 14.5 | 20.9 | 0.00 | 0.43 | 0.00 | 74 | 1018.1 |
| 20260506213016 | 1 | 243 | 12.9 | 19.3 | 0.00 | 0.43 | 0.00 | 74 | 1018.2 |
| 20260506212525 | 0 | 236 | 14.5 | 22.5 | 0.00 | 0.43 | 0.00 | 74 | 1018.2 |
| 20260506212026 | 0 | 247 | 14.5 | 22.5 | 0.00 | 0.43 | 0.00 | 74 | 1018.3 |
| 20260506211534 | 0 | 243 | 14.5 | 20.9 | 0.00 | 0.43 | 0.00 | 74 | 1018.5 |
| 20260506211013 | 0 | 239 | 16.1 | 20.9 | 0.00 | 0.43 | 0.00 | 74 | 1018.4 |
| 20260506210515 | 0 | 230 | 16.1 | 20.9 | 0.00 | 0.43 | 0.00 | 72 | 1018.4 |
| 20260506210023 | 0 | 226 | 16.1 | 20.9 | 0.00 | 0.43 | 0.00 | 72 | 1018.5 |
| 20260506205552 | 0 | 234 | 16.1 | 20.9 | 0.00 | 0.61 | 0.00 | 73 | 1018.5 |
| 20260506205050 | 0 | 249 | 14.5 | 20.9 | 0.00 | 0.61 | 0.00 | 73 | 1018.6 |
| 20260506204518 | 0 | 241 | 12.9 | 17.7 | 0.00 | 0.61 | 0.00 | 73 | 1018.6 |
| 20260506204039 | 0 | 234 | 14.5 | 19.3 | 0.00 | 0.61 | 0.00 | 72 | 1018.7 |
| 20260506203524 | 0 | 229 | 11.3 | 19.3 | 0.00 | 0.61 | 0.00 | 73 | 1018.7 |
| 20260506203024 | 0 | 273 | 12.9 | 17.7 | 0.00 | 0.61 | 0.00 | 72 | 1018.8 |
| 20260506202533 | 0 | 229 | 11.3 | 17.7 | 0.00 | 0.61 | 0.00 | 71 | 1018.8 |
| 20260506202015 | 0 | 226 | 14.5 | 17.7 | 0.00 | 0.61 | 0.00 | 71 | 1018.7 |